Location: Peebles
(55.6412°N, 3.1714°W)
Time: 00:38:21
(UTC+01:00)

DMSP 7529 - Pass Details

Date: 10 July 2022
Orbit: 766 x 803 km, 98.7° (Epoch: 15 August)

Event Time Altitude Azimuth Distance (km) Brightness Sun altitude
Rises 23:27:25 0° 11° (N) 3,324 9.3 -8.7°
Reaches altitude 10° 23:30:37 10° 351° (N) 2,393 9.0 -8.9°
Maximum altitude 23:33:41 16° 315° (NW) 2,008 8.3 -9.1°
Drops below altitude 10° 23:36:45 10° 279° (W) 2,389 8.0 -9.3°
Sets 23:39:57 0° 259° (W) 3,315 8.5 -9.5°
